Find OneWeb SL0261

NORAD ID: 48979 Int'l Des: 2021-060 Owner: ONEWEBN Country: UK Constellation: oneweb operational
LEOCIRCULARPOLARONEWEB_TYPE

当前视图

正在加载3D地球...

About OneWeb SL0261

OneWeb SL0261 (NORAD 48979) is a oneweb constellation satellite launched Jul 1, 2021 by ONEWEBN of UK. It operates in LEO, CIRCULAR, POLAR, ONEWEB_TYPE orbit with a mass of 148.00 kg.

关于 OneWeb SL0261

正在加载描述...

即将过境

Passes for default location (London). Set your location on the main map for personalized predictions.

高度历史

Loading altitude history...

两行轨道根数

1 48979U 21060N 26192.60625182 .00000151 00000-0 36048-3 0 9997
2 48979 87.9072 223.9336 0001987 104.7397 255.3954 13.16593493242876
Epoch: Jul 11, 2026 • Age: 13 hours

当前状态

高度 1199.9 km
远地点 / 近地点 N/A
速度 7.26 km/s
星下点 13.97°N, 116.52°W
发射日期 Jul 1, 2021
运行时间 5 years
类型 internet

技术详情

分类 Payload
质量 148.00 kg
干质量 140.00 kg
总质量 148.00 kg
长度 1.30 m
直径 1.00 m
跨度 5.00 m
形状 Trapezoid+2 pan
制造商 ONEWUS
平台类型 ARROW
阶段状态 In Orbit
所有者/国家 ONEWEBN/UK

Most Searched